GW4774 Weather Reports


Display with metric or nautical units.
time (UTC)temp
F
wind
direction
speed
MPH
gust
MPH
rain 1hr
in
rain 24hr
in
rain mn
in
humidity
%
barometer
mb
20260505163009 71 146 1.0 8.0 0.00 0.00 0.00 61 1007.3
20260505161513 72 256 2.0 7.0 0.00 0.00 0.00 59 1007.3
20260505153017 71 30 2.0 8.0 0.00 0.00 0.00 63 1006.7
20260505151510 70 240 2.0 7.0 0.00 0.00 0.00 63 1006.8
20260505120024 61 124 0.0 2.0 0.00 0.00 0.00 74 1006.2
20260505114524 61 188 1.0 6.0 0.00 0.00 0.00 74 1006.3
20260505111504 61 306 1.0 4.0 0.00 0.00 0.00 74 1006.1
20260505101526 61 228 1.0 4.0 0.00 0.00 0.00 73 1005.5
20260505100023 61 229 0.0 4.0 0.00 0.00 0.00 73 1005.5
20260505094518 61 157 1.0 5.0 0.00 0.00 0.00 73 1005.3
20260505093014 61 289 1.0 3.0 0.00 0.00 0.00 73 1005.2
20260505091514 61 186 0.0 3.0 0.00 0.00 0.00 72 1005.0
20260505090021 61 283 1.0 5.0 0.00 0.00 0.00 74 1004.9
20260505084534 60 154 1.0 4.0 0.00 0.00 0.00 76 1004.7
20260505083009 60 239 1.0 5.0 0.00 0.00 0.00 78 1004.7
20260505081515 61 264 0.0 7.0 0.00 0.00 0.00 77 1004.6
20260505080015 62 255 1.0 5.0 0.00 0.00 0.00 73 1004.2
20260505074523 61 117 0.0 3.0 0.00 0.00 0.00 74 1004.2
20260505073034 60 254 1.0 3.0 0.00 0.00 0.00 74 1003.9
20260505071509 60 141 0.0 1.0 0.00 0.00 0.00 74 1003.9
20260505070029 61 132 1.0 3.0 0.00 0.00 0.00 73 1003.9
20260505064520 61 186 1.0 4.0 0.00 0.00 0.00 73 1004.0
20260505063022 61 109 1.0 6.0 0.00 0.00 0.00 73 1004.2
20260505061535 61 158 0.0 3.0 0.00 0.00 0.00 72 1004.3
20260505060011 62 274 0.0 4.0 0.00 0.00 0.00 71 1004.5
20260505054516 62 64 0.0 5.0 0.00 0.00 0.00 70 1004.6
20260505053022 63 223 1.0 5.0 0.00 0.00 0.00 70 1004.8
20260505051524 63 158 0.0 6.0 0.00 0.00 0.00 69 1004.9
20260505041504 63 360 2.0 10.0 0.00 0.00 0.00 70 1005.1
20260505040007 62 141 1.0 6.0 0.00 0.00 0.00 71 1005.2
20260505034521 61 145 0.0 6.0 0.00 0.00 0.00 72 1005.4
20260505033014 61 263 0.0 2.0 0.00 0.00 0.00 72 1005.3
20260505031533 61 214 2.0 5.0 0.00 0.00 0.00 71 1005.2
20260505030005 61 169 1.0 2.0 0.00 0.00 0.00 71 1005.2
20260505024511 61 248 0.0 6.0 0.00 0.00 0.00 71 1005.2
20260505023015 61 215 0.0 3.0 0.00 0.00 0.00 72 1005.3
20260505021517 62 200 0.0 3.0 0.00 0.00 0.00 70 1005.5
20260505020020 62 190 0.0 2.0 0.00 0.00 0.00 69 1005.5
20260505014506 62 279 0.0 3.0 0.00 0.00 0.00 68 1005.4
20260505013011 63 174 0.0 3.0 0.00 0.00 0.00 66 1005.3
20260505011514 64 176 1.0 6.0 0.00 0.00 0.00 63 1005.4
20260505010024 65 150 1.0 6.0 0.00 0.00 0.00 62 1005.3
20260505004527 66 276 0.0 8.0 0.00 0.00 0.00 60 1005.0
20260505003008 66 278 0.0 11.0 0.00 0.00 0.00 60 1004.8
20260505001508 67 134 0.0 6.0 0.00 0.00 0.00 60 1004.5
20260505000013 67 248 2.0 8.0 0.00 0.00 0.00 58 1004.3
20260504234528 69 304 0.0 4.0 0.00 0.00 0.00 55 1004.1
20260504233024 71 207 1.0 4.0 0.00 0.00 0.00 54 1004.0
20260504231525 71 193 2.0 7.0 0.00 0.00 0.00 54 1004.2
20260504230028 71 316 2.0 6.0 0.00 0.00 0.00 57 1004.2
20260504224520 71 172 1.0 11.0 0.00 0.00 0.00 55 1004.4
20260504223005 74 101 1.0 6.0 0.00 0.00 0.00 52 1004.5
20260504221504 71 145 1.0 6.0 0.00 0.00 0.00 56 1004.7
20260504220014 72 165 2.0 7.0 0.00 0.00 0.00 54 1004.9
20260504214514 73 227 3.0 15.0 0.00 0.00 0.00 52 1004.6
20260504213032 72 172 2.0 8.0 0.00 0.00 0.00 55 1004.7
20260504211506 73 243 2.0 8.0 0.00 0.00 0.00 53 1004.9
20260504210008 73 152 1.0 9.0 0.00 0.00 0.00 54 1004.8
20260504203026 72 302 1.0 11.0 0.00 0.00 0.00 53 1005.1
20260504201504 74 248 2.0 10.0 0.00 0.00 0.00 50 1005.1
20260504194510 76 276 1.0 6.0 0.00 0.00 0.00 50 1005.4
20260504193012 74 240 2.0 8.0 0.00 0.00 0.00 51 1005.7
20260504190004 74 217 4.0 7.0 0.00 0.00 0.00 50 1006.1
20260504183010 71 264 2.0 8.0 0.00 0.00 0.00 54 1006.4
20260504181515 71 273 3.0 13.0 0.00 0.00 0.00 52 1006.5
20260504180020 71 254 1.0 12.0 0.00 0.00 0.00 50 1006.5
20260504173008 71 310 2.0 9.0 0.00 0.00 0.00 51 1007.0
20260504171511 70 223 2.0 8.0 0.00 0.00 0.00 50 1007.1